KINEIS-1C

Last updated on Thu Sep 24 2026 00:03:12 GMT+0000 (Coordinated Universal Time)

1 60081U 24114C 26266.61290693 .00000390 00000+0 57512-4 0 9990 2 60081 97.9820 290.1943 0001040 136.2787 223.8508 14.80751388121949
UTC large
Height (km)
Speed (km/s)
/
Latitude / Longitude
Inclination (degrees)
Orbital Period (minutes)
Azimuth
Elevation
Range (km)
Doppler Factor

Next 0 passes for location: London (51.5072 / 0.1276)

No passes found over London.
KINEIS-1C